Aurora, NE

12:39 AM CDT on May 30, 2017 (GMT -0500)
Aurora Municipal

Weather History for KAUH - November, 2012

Change the Weather History Date:

Thursday, November 22, 2012

  Actual Average Record
Temperature  
Mean Temperature 46 °F -  
Max Temperature 59 °F 46 °F 69 °F (2006)
Min Temperature 34 °F 24 °F 8 °F (1975)
Degree Days  
Heating Degree Days 18    
Moisture  
Dew Point 28 °F    
Average Humidity 51    
Maximum Humidity 78    
Minimum Humidity 29    
Precipitation  
Precipitation 0.00 in - - ()
Sea Level Pressure  
Sea Level Pressure 29.98 in    
Wind  
Wind Speed 13 mph (WNW)    
Max Wind Speed 32 mph    
Max Gust Speed 40 mph    
Visibility 10 miles    
Events      
Averages and records for this station are not official NWS values.
T = Trace of Precipitation, MM = Missing Value Source: NWS Daily Summary

Daily Weather History Graph

Daily Weather History Graph

Search for Another Location

Airport or City:

Trip Planner

Search our weather history database for the weather conditions in past years. The results will help you decide how hot, cold, wet, or windy it might be!

Date:

Astronomy

Nov. 22, 2012 Rise Set
Actual Time 7:27 AM CST 5:08 PM CST
Civil Twilight 6:57 AM CST 5:38 PM CST
Nautical Twilight 6:24 AM CST 6:11 PM CST
Astronomical Twilight 5:51 AM CST 6:44 PM CST
Moon 1:56 PM CST (11/22) 1:47 AM CST (11/22)
Length of Visible Light 10h 40m
Length of Day
9h 40m
Waxing Gibbous, 71% of the Moon is Illuminated
Nov 22
Waxing Gibbous
Nov 28
Full
Dec 6
Last Quarter
Dec 13
New
Dec 19
First Quarter

Hourly Weather History & Observations

Time (CST) Temp. Windchill Dew Point Humidity Pressure Visibility Wind Dir Wind Speed Gust Speed Precip Events Conditions
12:15 AM 53.8 °F - 37.4 °F 54% 29.77 in 10.0 mi South 10.4 mph - N/A   Clear
12:35 AM 53.6 °F - 37.2 °F 54% 29.76 in 10.0 mi SSW 11.5 mph - N/A   Clear
12:55 AM 53.2 °F - 36.9 °F 54% 29.76 in 10.0 mi SSW 11.5 mph - N/A   Clear
1:15 AM 52.7 °F - 36.7 °F 55% 29.75 in 10.0 mi SSW 12.7 mph - N/A   Clear
1:35 AM 52.0 °F - 36.3 °F 55% 29.75 in 10.0 mi SSW 10.4 mph - N/A   Clear
1:55 AM 50.7 °F - 36.0 °F 57% 29.74 in 10.0 mi SSW 10.4 mph - N/A   Clear
2:15 AM 48.2 °F - 35.6 °F 62% 29.75 in 10.0 mi SW 8.1 mph - N/A   Clear
2:35 AM 46.4 °F 41.9 °F 34.7 °F 64% 29.75 in 10.0 mi SW 9.2 mph - N/A   Clear
2:55 AM 45.7 °F 41.5 °F 34.3 °F 65% 29.76 in 10.0 mi SW 8.1 mph - N/A   Clear
3:15 AM 42.6 °F 37.2 °F 32.9 °F 68% 29.76 in 10.0 mi SW 9.2 mph - N/A   Clear
3:35 AM 40.8 °F 38.8 °F 32.7 °F 73% 29.76 in 10.0 mi WSW 3.5 mph - N/A   Clear
3:55 AM 41.2 °F 39.2 °F 33.1 °F 73% 29.76 in 10.0 mi SW 3.5 mph - N/A   Clear
4:15 AM 40.3 °F 37.1 °F 32.2 °F 73% 29.74 in 10.0 mi WSW 4.6 mph - N/A   Clear
4:35 AM 40.6 °F 37.5 °F 32.9 °F 74% 29.74 in 10.0 mi SSW 4.6 mph - N/A   Clear
4:55 AM 39.0 °F 34.0 °F 32.0 °F 76% 29.75 in 10.0 mi SW 6.9 mph - N/A   Clear
5:15 AM 38.5 °F 32.7 °F 32.0 °F 78% 29.74 in 10.0 mi SW 8.1 mph - N/A   Clear
5:35 AM 40.1 °F 34.7 °F 32.9 °F 75% 29.75 in 10.0 mi WSW 8.1 mph - N/A   Clear
5:55 AM 39.4 °F 34.5 °F 32.0 °F 75% 29.76 in 10.0 mi WSW 6.9 mph - N/A   Clear
6:15 AM 38.7 °F 33.6 °F 32.0 °F 77% 29.77 in 10.0 mi WSW 6.9 mph - N/A   Clear
6:35 AM 38.8 °F 33.8 °F 32.0 °F 76% 29.78 in 10.0 mi West 6.9 mph - N/A   Clear
6:55 AM 37.8 °F 32.5 °F 31.3 °F 77% 29.79 in 10.0 mi WSW 6.9 mph - N/A   Clear
7:15 AM 36.7 °F 29.9 °F 30.2 °F 77% 29.79 in 10.0 mi West 9.2 mph - N/A   Clear
7:35 AM 35.6 °F 29.9 °F 29.3 °F 78% 29.80 in 10.0 mi West 6.9 mph - N/A   Clear
7:55 AM 36.7 °F 30.5 °F 28.4 °F 72% 29.81 in 10.0 mi WNW 8.1 mph - N/A   Clear
8:15 AM 39.7 °F 34.3 °F 28.9 °F 65% 29.82 in 10.0 mi NW 8.1 mph - N/A   Clear
8:35 AM 43.0 °F 37.7 °F 29.7 °F 59% 29.82 in 10.0 mi NW 9.2 mph - N/A   Clear
8:55 AM 46.2 °F 40.8 °F 30.7 °F 55% 29.84 in 10.0 mi NW 11.5 mph - N/A   Clear
9:15 AM 49.3 °F - 30.4 °F 48% 29.86 in 10.0 mi NNW 15.0 mph - N/A   Clear
9:35 AM 52.0 °F - 30.9 °F 45% 29.86 in 10.0 mi NNW 17.3 mph 20.7 mph N/A   Clear
9:55 AM 53.6 °F - 30.9 °F 42% 29.88 in 10.0 mi NW 18.4 mph - N/A   Clear
10:15 AM 54.5 °F - 31.6 °F 42% 29.89 in 10.0 mi NW 20.7 mph 28.8 mph N/A   Clear
10:35 AM 57.4 °F - 32.0 °F 38% 29.90 in 10.0 mi NNW 25.3 mph 29.9 mph N/A   Clear
10:55 AM 58.1 °F - 32.0 °F 37% 29.92 in 10.0 mi NNW 25.3 mph 31.1 mph N/A   Clear
11:15 AM 59.2 °F - 32.4 °F 36% 29.93 in 10.0 mi NNW 28.8 mph 34.5 mph N/A   Clear
11:35 AM 59.7 °F - 33.1 °F 37% 29.94 in 10.0 mi North 27.6 mph 33.4 mph N/A   Clear
11:55 AM 59.9 °F - 33.1 °F 36% 29.95 in 10.0 mi NNW 32.2 mph 38.0 mph N/A   Clear
12:15 PM 58.8 °F - 33.4 °F 38% 29.96 in 10.0 mi NNW 32.2 mph 40.3 mph N/A   Clear
12:35 PM 57.7 °F - 34.2 °F 41% 29.96 in 10.0 mi NNW 28.8 mph 34.5 mph N/A   Clear
12:55 PM 57.6 °F - 33.4 °F 40% 29.98 in 10.0 mi NNW 29.9 mph 34.5 mph N/A   Clear
1:15 PM 57.2 °F - 32.2 °F 39% 29.99 in 10.0 mi NNW 25.3 mph 34.5 mph N/A   Clear
1:35 PM 57.6 °F - 31.3 °F 37% 30.00 in 10.0 mi NNW 29.9 mph 36.8 mph N/A   Clear
1:55 PM 57.2 °F - 31.1 °F 37% 30.01 in 10.0 mi NNW 27.6 mph 38.0 mph N/A   Clear
2:15 PM 57.6 °F - 31.5 °F 37% 30.01 in 10.0 mi NNW 23.0 mph 29.9 mph N/A   Clear
2:35 PM 57.0 °F - 31.3 °F 38% 30.03 in 10.0 mi North 25.3 mph 33.4 mph N/A   Clear
2:55 PM 56.3 °F - 31.1 °F 38% 30.05 in 10.0 mi NNW 27.6 mph 33.4 mph N/A   Clear
3:15 PM 55.6 °F - 29.1 °F 36% 30.05 in 10.0 mi NNW 24.2 mph 34.5 mph N/A   Scattered Clouds
3:35 PM 55.0 °F - 28.6 °F 36% 30.08 in 10.0 mi North 21.9 mph 29.9 mph N/A   Scattered Clouds
3:55 PM 54.5 °F - 25.0 °F 32% 30.09 in 10.0 mi NNW 25.3 mph 32.2 mph N/A   Scattered Clouds
4:15 PM 53.8 °F - 23.7 °F 31% 30.11 in 10.0 mi NNW 18.4 mph 26.5 mph N/A   Clear
4:35 PM 52.9 °F - 22.1 °F 30% 30.12 in 10.0 mi NNW 19.6 mph - N/A   Clear
4:55 PM 51.8 °F - 20.8 °F 30% 30.13 in 10.0 mi NNW 17.3 mph 26.5 mph N/A   Clear
5:15 PM 50.5 °F - 18.9 °F 29% 30.15 in 10.0 mi NNW 17.3 mph - N/A   Clear
5:35 PM 49.5 °F - 19.2 °F 30% 30.16 in 10.0 mi NNW 13.8 mph 25.3 mph N/A   Clear
5:55 PM 47.3 °F - 19.8 °F 34% 30.17 in 10.0 mi NNW 13.8 mph - N/A   Clear
6:15 PM 45.9 °F 40.8 °F 18.9 °F 34% 30.18 in 10.0 mi NNW 10.4 mph - N/A   Clear
6:35 PM 43.3 °F 38.1 °F 18.5 °F 37% 30.19 in 10.0 mi NW 9.2 mph - N/A   Clear
6:55 PM 39.4 °F 33.8 °F 18.9 °F 44% 30.20 in 10.0 mi WNW 8.1 mph - N/A   Clear
7:15 PM 36.0 °F 30.3 °F 18.9 °F 50% 30.20 in 10.0 mi WNW 6.9 mph - N/A   Clear
7:55 PM 39.0 °F 31.4 °F 19.6 °F 46% 30.23 in 10.0 mi NW 12.7 mph - N/A   Clear
8:15 PM 39.9 °F 32.9 °F 20.1 °F 45% 30.24 in 10.0 mi WNW 11.5 mph - N/A   Clear
8:35 PM 37.0 °F 30.4 °F 19.9 °F 50% 30.25 in 10.0 mi WNW 9.2 mph - N/A   Clear
8:55 PM 39.7 °F 31.5 °F 20.1 °F 45% 30.26 in 10.0 mi NW 15.0 mph - N/A   Clear
9:15 PM 41.5 °F 33.2 °F 19.4 °F 41% 30.28 in 10.0 mi NNW 17.3 mph - N/A   Clear
9:35 PM 39.6 °F 32.1 °F 19.4 °F 44% 30.29 in 10.0 mi NNW 12.7 mph - N/A   Clear
9:55 PM 37.9 °F 30.9 °F 19.8 °F 48% 30.29 in 10.0 mi NW 10.4 mph - N/A   Clear
10:15 PM 36.0 °F 28.5 °F 20.3 °F 53% 30.29 in 10.0 mi NW 10.4 mph - N/A   Clear
10:35 PM 34.0 °F 26.0 °F 20.3 °F 57% 30.28 in 10.0 mi NW 10.4 mph - N/A   Clear
10:55 PM 34.3 °F 25.5 °F 21.4 °F 59% 30.29 in 10.0 mi NW 12.7 mph - N/A   Clear
11:15 PM 37.8 °F 28.3 °F 21.6 °F 52% 30.31 in 10.0 mi NW 17.3 mph 21.9 mph N/A   Clear
11:35 PM 39.4 °F 30.1 °F 20.3 °F 46% 30.32 in 10.0 mi NW 18.4 mph 25.3 mph N/A   Clear
11:55 PM 36.1 °F 28.7 °F 20.1 °F 52% 30.32 in 10.0 mi NW 10.4 mph - N/A   Clear